Location: LDNL
(36.4545°S, 141.6685°E)
Time: 11:20:19
(UTC+10:00)

Vanguard 3 - Pass Details

Date: 31 January 2022
Orbit: 508 x 3258 km, 33.3° (Epoch: 25 May)

Event Time Altitude Azimuth Distance (km) Brightness Sun altitude
Rises 07:46:34 0° 262° (W) 6,211 11.1 10.3°
Reaches altitude 10° 07:51:29 10° 274° (W) 5,554 10.8 11.2°
Maximum altitude 08:04:11 25° 320° (NW) 4,949 10.8 13.7°
Drops below altitude 10° 08:18:15 10° 6° (N) 6,102 11.6 16.5°
Sets 08:24:13 0° 17° (NNE) 6,920 12.0 17.7°
